Location: Unspecified
(0.0000°N, 0.0000°E)
Time: 23:43:57
(UTC+00:00)

A-11 Canister half - Pass Details

Date: 17 February 2023
Orbit: 1526 x 1682 km, 47.3° (Epoch: 29 March)

Event Time Altitude Azimuth Distance (km) Brightness Sun altitude
Rises 12:24:23 0° 293° (WNW) 4,769 11.6 77.8°
Reaches altitude 10° 12:28:04 10° 282° (WNW) 3,810 11.2 77.5°
Maximum altitude 12:35:53 28° 228° (SW) 2,730 11.0 76.9°
Drops below altitude 10° 12:43:57 10° 173° (S) 3,911 11.4 75.9°
Sets 12:47:51 0° 162° (SSE) 4,916 11.8 75.4°
